Вернуться в каталог

FENGYUN 1C DEB

LostSSO
NORAD 38823·DEBRIS·🇨🇳 China

Запущен May 10, 1999 с Taiyuan Satellite Launch Center

Loading…

Ближайшие Пролёты (ближайшие 24 часа)

TLE

УстаревшееSource: Space-Track

Эпоха: Oct 30, 2024, 11:12 UTC

1 38823U 99025EVP 24304.46703957  .00012341  00000-0  71537-2 0  9999
2 38823  99.1660   9.2855 0100863  57.4926 303.5941 14.06386245821956

Отслеживайте FENGYUN 1C DEB в реальном времени с AllMySat

Download on the App Store